Omak, WA

9:33 AM PDT on June 27, 2017 (GMT -0700)
Omak

Weather History for KOMK - September, 2014

Change the Weather History Date:

Tuesday, September 30, 2014

  Actual Average Record
Temperature  
Mean Temperature 56 °F 56 °F  
Max Temperature 72 °F 71 °F 85 °F (1932)
Min Temperature 40 °F 42 °F 28 °F (1933)
Degree Days  
Heating Degree Days 9 9  
Month to date heating degree days 84 131  
Since 1 July heating degree days 89 161  
Cooling Degree Days 0 0  
Month to date cooling degree days 46 58  
Year to date cooling degree days 870 664  
Growing Degree Days 8 (Base 50)    
Moisture  
Dew Point 39 °F    
Average Humidity 49    
Maximum Humidity 71    
Minimum Humidity 27    
Precipitation  
Precipitation T in 0.02 in 0.71 in (2007)
Month to date precipitation 0.77 0.58  
Year to date precipitation 7.01 9.86  
Sea Level Pressure  
Sea Level Pressure 29.87 in    
Wind  
Wind Speed 8 mph (NNW)    
Max Wind Speed 25 mph    
Max Gust Speed 32 mph    
Visibility 10 miles    
Events Rain    
T = Trace of Precipitation, MM = Missing Value Source: NWS Daily Summary

Daily Weather History Graph

Daily Weather History Graph

Search for Another Location

Airport or City:

Trip Planner

Search our weather history database for the weather conditions in past years. The results will help you decide how hot, cold, wet, or windy it might be!

Date:

Astronomy

Sep. 30, 2014 Rise Set
Actual Time 6:56 AM PDT 6:38 PM PDT
Civil Twilight 6:24 AM PDT 7:10 PM PDT
Nautical Twilight 5:48 AM PDT 7:46 PM PDT
Astronomical Twilight 5:11 AM PDT 8:23 PM PDT
Moon 1:30 PM PDT (9/30) 10:52 PM PDT (9/30)
Length of Visible Light 12h 45m
Length of Day
11h 42m
Waxing Crescent, 39% of the Moon is Illuminated
Sep 30
Waxing Crescent
Oct 1
First Quarter
Oct 8
Full
Oct 15
Last Quarter
Oct 23
New

Hourly Weather History & Observations

Time (PDT) Temp. Dew Point Humidity Pressure Visibility Wind Dir Wind Speed Gust Speed Precip Events Conditions
12:53 AM 53.1 °F 43.0 °F 69% 29.74 in 10.0 mi NW 3.5 mph - N/A   Overcast
1:53 AM 57.0 °F 39.9 °F 53% 29.75 in 10.0 mi WNW 6.9 mph - N/A   Partly Cloudy
2:53 AM 54.0 °F 44.1 °F 69% 29.77 in 10.0 mi North 9.2 mph - N/A   Clear
3:53 AM 50.0 °F 41.0 °F 71% 29.80 in 10.0 mi NNW 4.6 mph - N/A   Clear
4:53 AM 52.0 °F 35.1 °F 53% 29.81 in 10.0 mi WNW 9.2 mph - N/A   Clear
5:53 AM 46.9 °F 35.1 °F 63% 29.82 in 10.0 mi WNW 5.8 mph - N/A   Clear
6:53 AM 46.9 °F 35.1 °F 63% 29.86 in 10.0 mi West 4.6 mph - N/A   Clear
7:53 AM 50.0 °F 37.0 °F 61% 29.89 in 10.0 mi NW 3.5 mph - N/A   Clear
8:53 AM 55.9 °F 39.9 °F 55% 29.90 in 10.0 mi ESE 4.6 mph - N/A   Clear
9:53 AM 59.0 °F 41.0 °F 51% 29.91 in 10.0 mi SE 4.6 mph - N/A   Clear
10:53 AM 63.0 °F 39.0 °F 41% 29.91 in 10.0 mi Calm Calm - N/A   Clear
11:53 AM 70.0 °F 37.0 °F 30% 29.90 in 10.0 mi NE 6.9 mph - N/A   Partly Cloudy
12:53 PM 71.1 °F 36.0 °F 28% 29.90 in 10.0 mi Variable 6.9 mph - N/A   Overcast
1:53 PM 70.0 °F 35.1 °F 28% 29.89 in 10.0 mi NNE 9.2 mph - N/A   Scattered Clouds
2:53 PM 68.0 °F 35.1 °F 30% 29.89 in 10.0 mi North 11.5 mph - N/A   Partly Cloudy
3:53 PM 61.0 °F 39.9 °F 46% 29.93 in 10.0 mi North 20.7 mph 29.9 mph 0.00 in Rain Light Rain
4:53 PM 64.0 °F 39.0 °F 40% 29.95 in 10.0 mi North 19.6 mph - 0.00 in   Mostly Cloudy
5:53 PM 61.0 °F 37.9 °F 42% 29.97 in 10.0 mi North 15.0 mph - 0.00 in   Clear
6:53 PM 66.9 °F 46.0 °F 47% 29.69 in 10.0 mi SE 6.9 mph - N/A   Clear
7:53 PM 54.0 °F 39.0 °F 57% 30.01 in 10.0 mi NW 5.8 mph - N/A   Clear
8:53 PM 53.1 °F 39.0 °F 59% 30.03 in 10.0 mi NW 8.1 mph - N/A   Clear
9:53 PM 57.0 °F 39.9 °F 53% 29.71 in 10.0 mi NW 6.9 mph - N/A   Clear
10:53 PM 48.0 °F 37.9 °F 68% 30.04 in 10.0 mi NW 4.6 mph - N/A   Clear
11:53 PM 52.0 °F 41.0 °F 66% 29.73 in 10.0 mi NW 4.6 mph - N/A   Mostly Cloudy